Station Historical Data
Daily Summary for January 14, 2017 Units:  English    Metric   Both
« Previous Day
Next Day »
Daily Weekly Monthly Yearly Custom
  High: Low: Average:
Temperature: 46.6 °F 35.2 °F 39.8 °F
Dew Point: 40.6 °F 31.4 °F 35.2 °F
Humidity: 95 % 67 % 84 %
Wind Speed: 13.0 mph 0.0 mph 0.4 mph
Wind Gust: 16.0 mph - -
Wind:- - SSE
Pressure: 30.29 in 30.18 in -
Precipitation: 0.00 in    
Historical Graphs
 
 
Tabular Data for January 14, 2017
Time Temperature Dew Point Pressure Wind Wind Speed Wind Gust Humidity Rainfall Rate (Hourly) solar
00:01 39.5 °F 33.5 °F 30.26 in ESE 11.0 mph 16.0 mph 79 % 0.00 in 0.00 W/m2
00:06 39.4 °F 33.1 °F 30.26 in ESE 13.0 mph 13.0 mph 78 % 0.00 in 0.00 W/m2
00:11 39.4 °F 33.1 °F 30.26 in East 5.0 mph 15.0 mph 78 % 0.00 in 0.00 W/m2
00:16 39.4 °F 33.4 °F 30.26 in Calm   6.0 mph 79 % 0.00 in 0.00 W/m2
00:21 39.3 °F 33.0 °F 30.27 in Calm   1.0 mph 78 % 0.00 in 0.00 W/m2
00:26 39.3 °F 33.0 °F 30.27 in Calm   1.0 mph 78 % 0.00 in 0.00 W/m2
00:31 39.2 °F 32.9 °F 30.27 in Calm   1.0 mph 78 % 0.00 in 0.00 W/m2
00:36 39.1 °F 33.2 °F 30.27 in Calm   1.0 mph 79 % 0.00 in 0.00 W/m2
00:41 39.0 °F 33.0 °F 30.27 in Calm   1.0 mph 79 % 0.00 in 0.00 W/m2
00:46 38.9 °F 33.3 °F 30.27 in Calm   1.0 mph 80 % 0.00 in 0.00 W/m2
00:51 38.8 °F 33.2 °F 30.27 in Calm   1.0 mph 80 % 0.00 in 0.00 W/m2
00:56 38.7 °F 33.4 °F 30.27 in Calm   1.0 mph 81 % 0.00 in 0.00 W/m2
01:01 38.6 °F 33.3 °F 30.27 in Calm   1.0 mph 81 % 0.00 in 0.00 W/m2
01:06 38.4 °F 32.8 °F 30.27 in Calm   1.0 mph 80 % 0.00 in 0.00 W/m2
01:11 38.3 °F 32.7 °F 30.27 in Calm   1.0 mph 80 % 0.00 in 0.00 W/m2
01:16 38.3 °F 32.7 °F 30.27 in Calm   1.0 mph 80 % 0.00 in 0.00 W/m2
01:21 38.2 °F 33.2 °F 30.27 in Calm     82 % 0.00 in 0.00 W/m2
01:26 38.2 °F 33.5 °F 30.27 in Calm   1.0 mph 83 % 0.00 in 0.00 W/m2
01:31 38.0 °F 33.3 °F 30.27 in ESE 5.0 mph 5.0 mph 83 % 0.00 in 0.00 W/m2
01:36 37.9 °F 33.2 °F 30.27 in ESE 7.0 mph 12.0 mph 83 % 0.00 in 0.00 W/m2
01:41 37.8 °F 33.1 °F 30.27 in Calm     83 % 0.00 in 0.00 W/m2
01:46 37.7 °F 33.0 °F 30.27 in Calm   1.0 mph 83 % 0.00 in 0.00 W/m2
01:51 37.6 °F 32.9 °F 30.28 in Calm   11.0 mph 83 % 0.00 in 0.00 W/m2
01:56 37.6 °F 32.9 °F 30.27 in Calm   1.0 mph 83 % 0.00 in 0.00 W/m2
02:01 37.6 °F 32.9 °F 30.27 in Calm   1.0 mph 83 % 0.00 in 0.00 W/m2
02:06 37.6 °F 32.9 °F 30.28 in Calm   11.0 mph 83 % 0.00 in 0.00 W/m2
02:11 37.5 °F 32.8 °F 30.28 in Calm     83 % 0.00 in 0.00 W/m2
02:16 37.5 °F 32.8 °F 30.28 in Calm   1.0 mph 83 % 0.00 in 0.00 W/m2
02:21 37.4 °F 33.0 °F 30.28 in Calm   1.0 mph 84 % 0.00 in 0.00 W/m2
02:26 37.4 °F 33.0 °F 30.28 in Calm   8.0 mph 84 % 0.00 in 0.00 W/m2
02:31 37.3 °F 32.9 °F 30.28 in Calm   11.0 mph 84 % 0.00 in 0.00 W/m2
02:36 37.2 °F 32.8 °F 30.27 in Calm   11.0 mph 84 % 0.00 in 0.00 W/m2
02:41 37.2 °F 32.8 °F 30.27 in Calm     84 % 0.00 in 0.00 W/m2
02:46 37.1 °F 32.7 °F 30.27 in Calm   1.0 mph 84 % 0.00 in 0.00 W/m2
02:51 37.1 °F 32.7 °F 30.27 in Calm   12.0 mph 84 % 0.00 in 0.00 W/m2
03:01 37.2 °F 32.8 °F 30.27 in Calm   1.0 mph 84 % 0.00 in 0.00 W/m2
03:06 37.3 °F 32.9 °F 30.27 in Calm     84 % 0.00 in 0.00 W/m2
03:11 37.4 °F 33.0 °F 30.27 in Calm   1.0 mph 84 % 0.00 in 0.00 W/m2
03:16 37.4 °F 32.7 °F 30.27 in Calm     83 % 0.00 in 0.00 W/m2
03:21 37.5 °F 32.8 °F 30.28 in Calm   1.0 mph 83 % 0.00 in 0.00 W/m2
03:26 37.5 °F 32.5 °F 30.27 in Calm     82 % 0.00 in 0.00 W/m2
03:31 37.6 °F 32.9 °F 30.28 in East 1.0 mph 1.0 mph 83 % 0.00 in 0.00 W/m2
03:36 37.6 °F 32.9 °F 30.28 in Calm     83 % 0.00 in 0.00 W/m2
03:41 37.6 °F 32.9 °F 30.28 in Calm     83 % 0.00 in 0.00 W/m2
03:46 37.5 °F 32.8 °F 30.28 in Calm     83 % 0.00 in 0.00 W/m2
03:51 37.4 °F 33.0 °F 30.27 in Calm     84 % 0.00 in 0.00 W/m2
03:56 37.4 °F 33.0 °F 30.27 in Calm   1.0 mph 84 % 0.00 in 0.00 W/m2
04:01 37.3 °F 32.9 °F 30.27 in Calm     84 % 0.00 in 0.00 W/m2
04:06 37.1 °F 33.0 °F 30.27 in Calm     85 % 0.00 in 0.00 W/m2
04:11 37.0 °F 32.9 °F 30.26 in Calm     85 % 0.00 in 0.00 W/m2
04:16 36.8 °F 32.7 °F 30.27 in Calm     85 % 0.00 in 0.00 W/m2
04:21 36.6 °F 32.5 °F 30.26 in Calm   1.0 mph 85 % 0.00 in 0.00 W/m2
04:26 36.5 °F 32.4 °F 30.26 in Calm     85 % 0.00 in 0.00 W/m2
04:31 36.4 °F 32.3 °F 30.27 in Calm     85 % 0.00 in 0.00 W/m2
04:36 36.3 °F 32.2 °F 30.27 in Calm     85 % 0.00 in 0.00 W/m2
04:41 36.2 °F 32.4 °F 30.26 in Calm     86 % 0.00 in 0.00 W/m2
04:46 36.1 °F 32.0 °F 30.26 in Calm     85 % 0.00 in 0.00 W/m2
04:51 36.0 °F 31.9 °F 30.26 in Calm     85 % 0.00 in 0.00 W/m2
04:56 35.9 °F 32.1 °F 30.26 in Calm     86 % 0.00 in 0.00 W/m2
05:01 35.9 °F 32.1 °F 30.26 in Calm     86 % 0.00 in 0.00 W/m2
05:06 35.9 °F 32.1 °F 30.26 in Calm     86 % 0.00 in 0.00 W/m2
05:11 36.0 °F 32.2 °F 30.26 in Calm     86 % 0.00 in 0.00 W/m2
05:16 36.0 °F 32.2 °F 30.27 in Calm     86 % 0.00 in 0.00 W/m2
05:21 36.0 °F 31.9 °F 30.27 in Calm     85 % 0.00 in 0.00 W/m2
05:26 36.0 °F 32.2 °F 30.26 in Calm     86 % 0.00 in 0.00 W/m2
05:31 36.1 °F 32.3 °F 30.26 in Calm     86 % 0.00 in 0.00 W/m2
05:37 36.1 °F 32.3 °F 30.26 in Calm     86 % 0.00 in 0.00 W/m2
05:42 36.0 °F 32.2 °F 30.26 in Calm     86 % 0.00 in 0.00 W/m2
05:47 36.0 °F 32.2 °F 30.26 in Calm     86 % 0.00 in 0.00 W/m2
05:52 36.0 °F 32.2 °F 30.26 in Calm     86 % 0.00 in 0.00 W/m2
05:57 35.9 °F 32.1 °F 30.27 in Calm     86 % 0.00 in 0.00 W/m2
06:02 35.9 °F 31.8 °F 30.27 in Calm     85 % 0.00 in 0.00 W/m2
06:07 35.9 °F 31.8 °F 30.27 in Calm     85 % 0.00 in 0.00 W/m2
06:12 35.8 °F 31.7 °F 30.27 in Calm     85 % 0.00 in 0.00 W/m2
06:17 35.7 °F 31.6 °F 30.27 in Calm     85 % 0.00 in 0.00 W/m2
06:22 35.7 °F 31.6 °F 30.27 in Calm     85 % 0.00 in 0.00 W/m2
06:27 35.7 °F 31.6 °F 30.27 in Calm     85 % 0.00 in 0.00 W/m2
06:32 35.7 °F 31.9 °F 30.27 in Calm     86 % 0.00 in 0.00 W/m2
06:37 35.6 °F 31.8 °F 30.27 in Calm     86 % 0.00 in 0.00 W/m2
06:42 35.6 °F 31.8 °F 30.27 in Calm     86 % 0.00 in 0.00 W/m2
06:47 35.5 °F 31.7 °F 30.27 in Calm     86 % 0.00 in 0.00 W/m2
06:52 35.5 °F 31.7 °F 30.26 in Calm     86 % 0.00 in 0.00 W/m2
06:57 35.5 °F 31.7 °F 30.26 in Calm     86 % 0.00 in 0.00 W/m2
07:02 35.4 °F 31.6 °F 30.26 in Calm     86 % 0.00 in 0.00 W/m2
07:07 35.3 °F 31.5 °F 30.26 in Calm   1.0 mph 86 % 0.00 in 0.00 W/m2
07:12 35.2 °F 31.4 °F 30.26 in Calm   1.0 mph 86 % 0.00 in 0.00 W/m2
07:17 35.2 °F 31.4 °F 30.26 in Calm   1.0 mph 86 % 0.00 in 5.00 W/m2
07:22 35.2 °F 31.4 °F 30.26 in East 1.0 mph 1.0 mph 86 % 0.00 in 7.00 W/m2
07:27 35.3 °F 31.5 °F 30.27 in East 6.0 mph 11.0 mph 86 % 0.00 in 11.00 W/m2
07:31 35.3 °F 31.5 °F 30.27 in Calm   12.0 mph 86 % 0.00 in 12.00 W/m2
07:36 35.3 °F 31.5 °F 30.27 in East 1.0 mph 2.0 mph 86 % 0.00 in 14.00 W/m2
07:41 35.4 °F 31.4 °F 30.27 in Calm   1.0 mph 85 % 0.00 in 18.00 W/m2
07:46 35.5 °F 31.5 °F 30.27 in Calm   1.0 mph 85 % 0.00 in 26.00 W/m2
07:51 35.6 °F 31.5 °F 30.27 in Calm   1.0 mph 85 % 0.00 in 37.00 W/m2
07:56 35.7 °F 31.6 °F 30.27 in ESE 1.0 mph 11.0 mph 85 % 0.00 in 49.00 W/m2
08:01 35.8 °F 31.7 °F 30.26 in ESE 1.0 mph 9.0 mph 85 % 0.00 in 63.00 W/m2
08:06 35.9 °F 31.8 °F 30.26 in Calm   12.0 mph 85 % 0.00 in 77.00 W/m2
08:11 36.0 °F 31.9 °F 30.26 in East 2.0 mph 9.0 mph 85 % 0.00 in 91.00 W/m2
08:16 36.1 °F 32.3 °F 30.27 in ESE 4.0 mph 12.0 mph 86 % 0.00 in 107.00 W/m2
08:21 36.2 °F 32.4 °F 30.27 in Calm   11.0 mph 86 % 0.00 in 120.00 W/m2
08:26 36.3 °F 32.2 °F 30.27 in Calm   11.0 mph 85 % 0.00 in 141.00 W/m2
08:31 36.4 °F 32.3 °F 30.27 in Calm   12.0 mph 85 % 0.00 in 116.00 W/m2
08:36 36.5 °F 32.4 °F 30.27 in ESE 2.0 mph 14.0 mph 85 % 0.00 in 158.00 W/m2
08:41 36.7 °F 32.6 °F 30.27 in Calm   11.0 mph 85 % 0.00 in 171.00 W/m2
08:46 36.8 °F 32.7 °F 30.27 in Calm   12.0 mph 85 % 0.00 in 183.00 W/m2
08:51 37.0 °F 32.6 °F 30.27 in Calm   11.0 mph 84 % 0.00 in 230.00 W/m2
08:56 37.1 °F 33.0 °F 30.27 in East 4.0 mph 4.0 mph 85 % 0.00 in 248.00 W/m2
09:01 37.3 °F 33.2 °F 30.27 in ESE 2.0 mph 6.0 mph 85 % 0.00 in 264.00 W/m2
09:06 37.4 °F 33.6 °F 30.28 in Calm   1.0 mph 86 % 0.00 in 281.00 W/m2
09:11 37.6 °F 33.5 °F 30.28 in Calm   1.0 mph 85 % 0.00 in 297.00 W/m2
09:16 37.7 °F 33.3 °F 30.28 in Calm     84 % 0.00 in 315.00 W/m2
09:21 37.8 °F 32.8 °F 30.28 in Calm     82 % 0.00 in 330.00 W/m2
09:26 38.2 °F 32.9 °F 30.29 in Calm     81 % 0.00 in 345.00 W/m2
09:31 38.6 °F 32.3 °F 30.29 in Calm     78 % 0.00 in 357.00 W/m2
09:36 39.1 °F 32.5 °F 30.29 in Calm     77 % 0.00 in 366.00 W/m2
09:41 39.6 °F 33.0 °F 30.28 in Calm     77 % 0.00 in 380.00 W/m2
09:46 39.8 °F 33.5 °F 30.28 in Calm     78 % 0.00 in 387.00 W/m2
09:51 39.9 °F 34.2 °F 30.28 in Calm     80 % 0.00 in 403.00 W/m2
09:56 40.0 °F 33.1 °F 30.28 in Calm     76 % 0.00 in 413.00 W/m2
10:01 40.1 °F 33.5 °F 30.28 in Calm     77 % 0.00 in 424.00 W/m2
10:06 40.3 °F 33.7 °F 30.28 in Calm     77 % 0.00 in 434.00 W/m2
10:11 40.4 °F 34.1 °F 30.28 in Calm     78 % 0.00 in 443.00 W/m2
10:16 40.4 °F 34.4 °F 30.28 in Calm     79 % 0.00 in 452.00 W/m2
10:21 40.5 °F 34.8 °F 30.28 in Calm     80 % 0.00 in 461.00 W/m2
10:26 40.6 °F 34.6 °F 30.28 in ENE 1.0 mph 1.0 mph 79 % 0.00 in 468.00 W/m2
10:31 40.9 °F 33.6 °F 30.29 in Calm   1.0 mph 75 % 0.00 in 476.00 W/m2
10:36 41.2 °F 33.5 °F 30.28 in Calm   1.0 mph 74 % 0.00 in 483.00 W/m2
10:41 41.5 °F 33.2 °F 30.28 in Calm   1.0 mph 72 % 0.00 in 489.00 W/m2
10:46 41.8 °F 34.1 °F 30.28 in Calm   1.0 mph 74 % 0.00 in 497.00 W/m2
10:51 41.8 °F 34.1 °F 30.28 in NNW 1.0 mph 1.0 mph 74 % 0.00 in 504.00 W/m2
10:56 41.8 °F 33.5 °F 30.28 in Calm   1.0 mph 72 % 0.00 in 512.00 W/m2
11:01 41.9 °F 33.5 °F 30.28 in Calm   1.0 mph 72 % 0.00 in 515.00 W/m2
11:06 42.1 °F 34.1 °F 30.28 in Calm   1.0 mph 73 % 0.00 in 520.00 W/m2
11:11 42.2 °F 34.9 °F 30.27 in NNW 1.0 mph 1.0 mph 75 % 0.00 in 526.00 W/m2
11:17 42.2 °F 34.5 °F 30.27 in Calm   1.0 mph 74 % 0.00 in 531.00 W/m2
11:22 42.4 °F 34.7 °F 30.27 in Calm     74 % 0.00 in 536.00 W/m2
11:27 42.5 °F 34.8 °F 30.27 in Calm   1.0 mph 74 % 0.00 in 538.00 W/m2
11:32 42.7 °F 35.7 °F 30.27 in Calm   1.0 mph 76 % 0.00 in 541.00 W/m2
11:37 42.8 °F 35.1 °F 30.26 in Calm   1.0 mph 74 % 0.00 in 547.00 W/m2
11:42 43.0 °F 34.2 °F 30.26 in Calm   1.0 mph 71 % 0.00 in 548.00 W/m2
11:47 43.2 °F 35.1 °F 30.26 in Calm   1.0 mph 73 % 0.00 in 548.00 W/m2
11:52 43.2 °F 35.1 °F 30.25 in Calm     73 % 0.00 in 552.00 W/m2
11:57 43.3 °F 35.9 °F 30.25 in Calm   1.0 mph 75 % 0.00 in 552.00 W/m2
12:02 43.5 °F 36.1 °F 30.25 in Calm   1.0 mph 75 % 0.00 in 554.00 W/m2
12:07 43.6 °F 36.2 °F 30.25 in Calm   1.0 mph 75 % 0.00 in 555.00 W/m2
12:12 43.7 °F 36.0 °F 30.24 in Calm   1.0 mph 74 % 0.00 in 555.00 W/m2
12:17 43.9 °F 36.5 °F 30.24 in Calm   1.0 mph 75 % 0.00 in 555.00 W/m2
12:22 44.0 °F 36.3 °F 30.24 in Calm   1.0 mph 74 % 0.00 in 554.00 W/m2
12:27 44.3 °F 36.2 °F 30.24 in Calm   1.0 mph 73 % 0.00 in 552.00 W/m2
12:32 44.6 °F 36.5 °F 30.24 in Calm   1.0 mph 73 % 0.00 in 550.00 W/m2
12:37 44.7 °F 36.6 °F 30.24 in Calm   1.0 mph 73 % 0.00 in 547.00 W/m2
12:42 45.0 °F 36.5 °F 30.23 in Calm   1.0 mph 72 % 0.00 in 545.00 W/m2
12:47 45.1 °F 37.0 °F 30.23 in Calm   1.0 mph 73 % 0.00 in 541.00 W/m2
12:52 45.2 °F 36.7 °F 30.23 in NW 1.0 mph 1.0 mph 72 % 0.00 in 540.00 W/m2
12:57 45.3 °F 36.8 °F 30.22 in NW 1.0 mph 1.0 mph 72 % 0.00 in 534.00 W/m2
13:02 45.4 °F 37.3 °F 30.22 in Calm   1.0 mph 73 % 0.00 in 531.00 W/m2
13:07 45.4 °F 36.9 °F 30.22 in Calm   1.0 mph 72 % 0.00 in 527.00 W/m2
13:12 45.4 °F 37.6 °F 30.22 in Calm     74 % 0.00 in 522.00 W/m2
13:17 45.6 °F 37.8 °F 30.22 in Calm   1.0 mph 74 % 0.00 in 515.00 W/m2
13:22 45.7 °F 36.5 °F 30.21 in NW 1.0 mph 1.0 mph 70 % 0.00 in 510.00 W/m2
13:27 45.8 °F 36.6 °F 30.21 in Calm   1.0 mph 70 % 0.00 in 504.00 W/m2
13:32 45.9 °F 36.7 °F 30.21 in NW 1.0 mph 1.0 mph 70 % 0.00 in 496.00 W/m2
13:37 46.0 °F 37.5 °F 30.21 in Calm   1.0 mph 72 % 0.00 in 489.00 W/m2
13:42 46.1 °F 36.5 °F 30.21 in NW 1.0 mph 1.0 mph 69 % 0.00 in 482.00 W/m2
13:47 46.3 °F 36.0 °F 30.21 in Calm   1.0 mph 67 % 0.00 in 475.00 W/m2
13:52 46.3 °F 36.7 °F 30.20 in Calm   1.0 mph 69 % 0.00 in 466.00 W/m2
13:57 46.4 °F 37.9 °F 30.20 in Calm   1.0 mph 72 % 0.00 in 459.00 W/m2
14:03 46.4 °F 36.8 °F 30.20 in NW 1.0 mph 1.0 mph 69 % 0.00 in 452.00 W/m2
14:08 46.4 °F 36.8 °F 30.20 in Calm   1.0 mph 69 % 0.00 in 441.00 W/m2
14:13 46.4 °F 36.8 °F 30.20 in Calm   1.0 mph 69 % 0.00 in 432.00 W/m2
14:18 46.4 °F 36.0 °F 30.20 in Calm     67 % 0.00 in 422.00 W/m2
14:23 46.5 °F 36.5 °F 30.19 in Calm     68 % 0.00 in 411.00 W/m2
14:28 46.5 °F 38.3 °F 30.19 in Calm     73 % 0.00 in 403.00 W/m2
14:33 46.4 °F 37.5 °F 30.19 in Calm     71 % 0.00 in 390.00 W/m2
14:38 46.4 °F 37.2 °F 30.19 in Calm     70 % 0.00 in 378.00 W/m2
14:43 46.4 °F 37.2 °F 30.19 in Calm     70 % 0.00 in 369.00 W/m2
14:48 46.5 °F 37.6 °F 30.19 in Calm     71 % 0.00 in 357.00 W/m2
14:53 46.5 °F 38.0 °F 30.19 in Calm     72 % 0.00 in 343.00 W/m2
14:58 46.5 °F 38.7 °F 30.19 in Calm     74 % 0.00 in 329.00 W/m2
15:03 46.5 °F 38.7 °F 30.19 in Calm     74 % 0.00 in 316.00 W/m2
15:08 46.6 °F 39.1 °F 30.19 in Calm     75 % 0.00 in 304.00 W/m2
15:13 46.6 °F 39.1 °F 30.20 in Calm     75 % 0.00 in 290.00 W/m2
15:18 46.5 °F 39.4 °F 30.20 in Calm     76 % 0.00 in 278.00 W/m2
15:23 46.4 °F 38.6 °F 30.20 in Calm     74 % 0.00 in 262.00 W/m2
15:28 46.3 °F 38.8 °F 30.20 in Calm     75 % 0.00 in 248.00 W/m2
15:33 46.2 °F 38.7 °F 30.20 in Calm     75 % 0.00 in 230.00 W/m2
15:38 46.2 °F 39.4 °F 30.20 in WNW 1.0 mph 1.0 mph 77 % 0.00 in 211.00 W/m2
15:43 46.2 °F 39.7 °F 30.20 in Calm   1.0 mph 78 % 0.00 in 195.00 W/m2
15:48 46.1 °F 40.3 °F 30.20 in WNW 1.0 mph 2.0 mph 80 % 0.00 in 172.00 W/m2
15:53 46.0 °F 40.5 °F 30.20 in Calm   1.0 mph 81 % 0.00 in 156.00 W/m2
15:58 45.8 °F 40.3 °F 30.20 in Calm   1.0 mph 81 % 0.00 in 137.00 W/m2
16:03 45.7 °F 40.2 °F 30.20 in Calm   1.0 mph 81 % 0.00 in 120.00 W/m2
16:08 45.5 °F 40.0 °F 30.20 in Calm   1.0 mph 81 % 0.00 in 105.00 W/m2
16:13 45.4 °F 40.5 °F 30.20 in Calm   1.0 mph 83 % 0.00 in 88.00 W/m2
16:18 45.1 °F 40.2 °F 30.20 in Calm   1.0 mph 83 % 0.00 in 72.00 W/m2
16:23 44.9 °F 40.4 °F 30.20 in Calm   1.0 mph 84 % 0.00 in 58.00 W/m2
16:28 44.7 °F 40.5 °F 30.20 in Calm     85 % 0.00 in 46.00 W/m2
16:33 44.6 °F 40.4 °F 30.19 in Calm     85 % 0.00 in 33.00 W/m2
16:38 44.4 °F 40.5 °F 30.19 in Calm     86 % 0.00 in 25.00 W/m2
16:43 44.2 °F 40.6 °F 30.19 in Calm     87 % 0.00 in 16.00 W/m2
16:48 43.9 °F 40.3 °F 30.19 in Calm     87 % 0.00 in 12.00 W/m2
16:53 43.7 °F 40.1 °F 30.19 in Calm     87 % 0.00 in 9.00 W/m2
16:58 43.4 °F 40.1 °F 30.19 in Calm     88 % 0.00 in 7.00 W/m2
17:03 43.2 °F 39.9 °F 30.19 in Calm     88 % 0.00 in 5.00 W/m2
17:08 42.9 °F 39.6 °F 30.19 in Calm     88 % 0.00 in 0.00 W/m2
17:13 42.6 °F 39.6 °F 30.19 in Calm     89 % 0.00 in 0.00 W/m2
17:18 42.4 °F 39.4 °F 30.19 in Calm     89 % 0.00 in 0.00 W/m2
17:23 42.2 °F 39.2 °F 30.19 in Calm     89 % 0.00 in 0.00 W/m2
17:28 42.0 °F 39.0 °F 30.19 in Calm     89 % 0.00 in 0.00 W/m2
17:33 41.8 °F 39.1 °F 30.20 in Calm     90 % 0.00 in 0.00 W/m2
17:38 41.5 °F 38.8 °F 30.20 in Calm     90 % 0.00 in 0.00 W/m2
17:43 41.1 °F 38.4 °F 30.20 in Calm     90 % 0.00 in 0.00 W/m2
17:48 41.0 °F 38.3 °F 30.20 in Calm     90 % 0.00 in 0.00 W/m2
17:53 40.8 °F 38.4 °F 30.20 in Calm     91 % 0.00 in 0.00 W/m2
17:58 40.6 °F 38.2 °F 30.20 in Calm     91 % 0.00 in 0.00 W/m2
18:03 40.4 °F 38.0 °F 30.20 in Calm     91 % 0.00 in 0.00 W/m2
18:08 40.0 °F 37.6 °F 30.20 in Calm     91 % 0.00 in 0.00 W/m2
18:13 39.8 °F 37.7 °F 30.20 in Calm     92 % 0.00 in 0.00 W/m2
18:18 39.6 °F 37.5 °F 30.20 in Calm     92 % 0.00 in 0.00 W/m2
18:23 39.5 °F 37.4 °F 30.20 in Calm     92 % 0.00 in 0.00 W/m2
18:29 39.4 °F 37.5 °F 30.20 in Calm     93 % 0.00 in 0.00 W/m2
18:34 39.3 °F 37.5 °F 30.21 in Calm     93 % 0.00 in 0.00 W/m2
18:39 39.1 °F 37.2 °F 30.21 in Calm     93 % 0.00 in 0.00 W/m2
18:44 39.0 °F 37.2 °F 30.20 in Calm     93 % 0.00 in 0.00 W/m2
18:49 38.9 °F 37.0 °F 30.21 in Calm     93 % 0.00 in 0.00 W/m2
18:54 38.8 °F 37.0 °F 30.20 in Calm     93 % 0.00 in 0.00 W/m2
18:59 38.7 °F 37.1 °F 30.20 in Calm     94 % 0.00 in 0.00 W/m2
19:04 38.6 °F 37.0 °F 30.20 in Calm     94 % 0.00 in 0.00 W/m2
19:09 38.6 °F 37.0 °F 30.21 in Calm     94 % 0.00 in 0.00 W/m2
19:14 38.6 °F 37.0 °F 30.21 in Calm     94 % 0.00 in 0.00 W/m2
19:19 38.5 °F 36.9 °F 30.21 in Calm     94 % 0.00 in 0.00 W/m2
19:24 38.5 °F 36.9 °F 30.21 in Calm     94 % 0.00 in 0.00 W/m2
19:29 38.5 °F 36.9 °F 30.21 in Calm     94 % 0.00 in 0.00 W/m2
19:34 38.5 °F 36.9 °F 30.21 in Calm     94 % 0.00 in 0.00 W/m2
19:39 38.4 °F 36.8 °F 30.21 in Calm     94 % 0.00 in 0.00 W/m2
19:44 38.4 °F 36.8 °F 30.21 in Calm     94 % 0.00 in 0.00 W/m2
19:49 38.5 °F 36.9 °F 30.21 in Calm     94 % 0.00 in 0.00 W/m2
19:55 38.4 °F 36.8 °F 30.21 in Calm     94 % 0.00 in 0.00 W/m2
20:00 38.4 °F 36.8 °F 30.21 in Calm     94 % 0.00 in 0.00 W/m2
20:05 38.4 °F 36.8 °F 30.21 in Calm     94 % 0.00 in 0.00 W/m2
20:10 38.5 °F 37.2 °F 30.21 in East 1.0 mph 1.0 mph 95 % 0.00 in 0.00 W/m2
20:15 38.5 °F 37.2 °F 30.21 in Calm   2.0 mph 95 % 0.00 in 0.00 W/m2
20:20 38.6 °F 37.3 °F 30.21 in Calm   1.0 mph 95 % 0.00 in 0.00 W/m2
20:25 38.6 °F 37.3 °F 30.21 in Calm   2.0 mph 95 % 0.00 in 0.00 W/m2
20:30 38.7 °F 37.4 °F 30.21 in Calm   2.0 mph 95 % 0.00 in 0.00 W/m2
20:35 38.8 °F 37.5 °F 30.21 in East 1.0 mph 2.0 mph 95 % 0.00 in 0.00 W/m2
20:40 38.9 °F 37.6 °F 30.20 in Calm   2.0 mph 95 % 0.00 in 0.00 W/m2
20:45 38.9 °F 37.6 °F 30.20 in East 1.0 mph 2.0 mph 95 % 0.00 in 0.00 W/m2
20:50 38.9 °F 37.6 °F 30.21 in East 1.0 mph 2.0 mph 95 % 0.00 in 0.00 W/m2
20:55 38.9 °F 37.6 °F 30.20 in Calm   1.0 mph 95 % 0.00 in 0.00 W/m2
21:00 38.8 °F 37.5 °F 30.20 in Calm     95 % 0.00 in 0.00 W/m2
21:05 38.8 °F 37.5 °F 30.20 in East 2.0 mph 4.0 mph 95 % 0.00 in 0.00 W/m2
21:10 38.8 °F 37.5 °F 30.20 in Calm   5.0 mph 95 % 0.00 in 0.00 W/m2
21:15 38.7 °F 37.4 °F 30.20 in East 1.0 mph 2.0 mph 95 % 0.00 in 0.00 W/m2
21:20 38.7 °F 37.4 °F 30.20 in East 1.0 mph 6.0 mph 95 % 0.00 in 0.00 W/m2
21:25 38.6 °F 37.3 °F 30.20 in East 2.0 mph 5.0 mph 95 % 0.00 in 0.00 W/m2
21:30 38.6 °F 37.3 °F 30.20 in Calm   5.0 mph 95 % 0.00 in 0.00 W/m2
21:35 38.6 °F 37.3 °F 30.20 in Calm   4.0 mph 95 % 0.00 in 0.00 W/m2
21:40 38.6 °F 37.3 °F 30.20 in Calm   7.0 mph 95 % 0.00 in 0.00 W/m2
21:45 38.6 °F 37.3 °F 30.20 in East 1.0 mph 9.0 mph 95 % 0.00 in 0.00 W/m2
21:50 38.6 °F 37.3 °F 30.20 in East 1.0 mph 7.0 mph 95 % 0.00 in 0.00 W/m2
21:55 38.6 °F 37.3 °F 30.20 in East 4.0 mph 6.0 mph 95 % 0.00 in 0.00 W/m2
22:00 38.6 °F 37.3 °F 30.20 in East 2.0 mph 6.0 mph 95 % 0.00 in 0.00 W/m2
22:05 38.7 °F 37.4 °F 30.19 in Calm   5.0 mph 95 % 0.00 in 0.00 W/m2
22:10 38.6 °F 37.3 °F 30.20 in East 4.0 mph 5.0 mph 95 % 0.00 in 0.00 W/m2
22:15 38.6 °F 37.3 °F 30.19 in Calm   7.0 mph 95 % 0.00 in 0.00 W/m2
22:20 38.5 °F 37.2 °F 30.19 in ESE 2.0 mph 6.0 mph 95 % 0.00 in 0.00 W/m2
22:25 38.4 °F 37.1 °F 30.19 in Calm   7.0 mph 95 % 0.00 in 0.00 W/m2
22:30 38.4 °F 37.1 °F 30.19 in Calm   7.0 mph 95 % 0.00 in 0.00 W/m2
22:35 38.3 °F 37.0 °F 30.19 in Calm   6.0 mph 95 % 0.00 in 0.00 W/m2
22:40 38.3 °F 37.0 °F 30.19 in East 4.0 mph 6.0 mph 95 % 0.00 in 0.00 W/m2
22:45 38.3 °F 36.7 °F 30.19 in Calm   4.0 mph 94 % 0.00 in 0.00 W/m2
22:50 38.3 °F 36.7 °F 30.19 in Calm   6.0 mph 94 % 0.00 in 0.00 W/m2
22:55 38.2 °F 36.6 °F 30.19 in Calm   4.0 mph 94 % 0.00 in 0.00 W/m2
23:00 38.1 °F 36.5 °F 30.19 in Calm   2.0 mph 94 % 0.00 in 0.00 W/m2
23:05 38.0 °F 36.4 °F 30.19 in Calm     94 % 0.00 in 0.00 W/m2
23:10 37.8 °F 36.2 °F 30.19 in Calm     94 % 0.00 in 0.00 W/m2
23:15 37.7 °F 36.1 °F 30.19 in Calm     94 % 0.00 in 0.00 W/m2
23:20 37.6 °F 36.0 °F 30.18 in Calm     94 % 0.00 in 0.00 W/m2
23:25 37.5 °F 35.9 °F 30.18 in Calm     94 % 0.00 in 0.00 W/m2
23:30 37.4 °F 35.8 °F 30.18 in Calm     94 % 0.00 in 0.00 W/m2
23:35 37.2 °F 35.6 °F 30.18 in Calm     94 % 0.00 in 0.00 W/m2
23:40 37.1 °F 35.5 °F 30.18 in Calm     94 % 0.00 in 0.00 W/m2
23:45 36.9 °F 35.1 °F 30.18 in Calm     93 % 0.00 in 0.00 W/m2
23:50 36.8 °F 35.0 °F 30.19 in Calm     93 % 0.00 in 0.00 W/m2
23:55 36.7 °F 34.9 °F 30.18 in Calm     93 % 0.00 in 0.00 W/m2
Juneau County Weather
Compliments of Weather Underground - 4.5 mb
 WU-history PHP script courtesy of   Juneau County Weather.
powered by Cumulus v1.9.3 (1059)
Ambient Weather VWS v14.00
Top Contact Website Map Copyright © 2007 - 2018 Foresthillweather.com Never base important decisions on this or any weather information obtained from the Internet